sat.trackr.live / text

‹ back to catalog

STARLINK-36041

NORAD 66798 · 2025-278H

PAYLOAD ACTIVE UNKNOWN

§ Identity

Operator
Country
US
Launch date
2025-12-01
Launch site
AFETR
Launch vehicle
Mass (kg)
RCS (m²)

Purposes: comms

External: N2YO · Heavens-Above · Gunter

§ Orbital elements

Epoch: 2026-05-25T02:37:01.881120Z

Period
94.27 min
Inclination
43.0054°
Eccentricity
0.0001565
Mean motion
15.27604656 rev/d
Perigee alt
481.9 km
Apogee alt
484.0 km
Semi-major
6,861.1 km
B*
4.6918e-4
RAAN
43.0350°
Arg perigee
252.9731°
Mean anomaly
107.0949°
Rev number
2,689

§ Raw data

STARLINK-360411 66798U 25278H   26145.10904955  .00012680  00000+0  46918-3 0  99982 66798  43.0054  43.0350 0001565 252.9731 107.0949 15.27604656 26892

JSON: /api/v1/satellites/66798 · /tle

For live sub-satellite position, see the globe view (requires WebGL).

§ Visibility from observer

Set your observer location to see the next 7 days of passes ≥ 10°. The values pass through the URL so the page stays shareable.

No JS? Fill the form by hand. The geolocation button needs JavaScript.